Home   Weather   Bern   Past weeks
Flag for Switzerland

Past Weather in Bern, Bern, Switzerland — Yesterday and Last 2 Weeks

Now
81 °F

Passing clouds.


Feels Like: 81 °F
Forecast: 80 / 54 °F
Wind: 3 mph from Northwest

Location: Bern / Belp

Current Time: Aug 25, 2019 at 4:07:10 pm

Latest Report: Aug 25, 2019 at 3:20 pm


Visibility: N/A

Pressure: 30.12 "Hg (28.35 "Hg at 533m altitude)

Humidity: 42%

Dew Point: 55 °F

Location of BernLocation

Past Weather in Bern — Graph

°F

Bern Temperature Yesterday

Maximum temperature yesterday: 81 °F (at 4:20 pm)
Minimum temperature yesterday: 52 °F (at 2:50 am)
Average temperature yesterday: 65 °F

High & Low Weather Summary for the Past Weeks

 TemperatureHumidityPressure
High88 °F (Aug 18, 2:50 pm)100% (Aug 11, 6:20 am)30.36 "Hg (Aug 11, 6:20 am)
Low46 °F (Aug 21, 6:20 am)32% (Aug 17, 6:50 pm)29.86 "Hg (Aug 18, 1:20 pm)
Average63 °F78%30.12 "Hg
* Reported Aug 10 2:20 pm — Aug 25 2:50 pm, Bern. Weather by CustomWeather, © 2019

Note: Actual official high and low records may vary slightly from our data, if they occured in-between our weather recording intervals... More about our weather records

Advertising

Bern Weather History for the Previous 24 Hours

Scroll right to see more
 ConditionsComfort  
Time TempWeatherWind HumidityBarometerVisibility
2:50 pm
Sun, Aug 25
81 °FSunny.5 mph48%30.12 "Hg10 mi
2:20 pm79 °FPassing clouds.7 mph48%30.12 "HgN/A
1:50 pm79 °FPassing clouds.6 mph48%30.12 "HgN/A
1:20 pm77 °FPassing clouds.5 mph51%30.12 "HgN/A
12:50 pm77 °FPassing clouds.5 mph54%30.12 "HgN/A
12:20 pm75 °FSunny.5 mph61%30.12 "Hg10 mi
11:50 am73 °FSunny.3 mph65%30.15 "Hg10 mi
11:20 am72 °FSunny.2 mph69%30.15 "Hg10 mi
10:50 am70 °FSunny.2 mph73%30.15 "Hg10 mi
10:20 am68 °FSunny.2 mph73%30.15 "Hg10 mi
9:50 am68 °FSunny.1 mph78%30.15 "Hg10 mi
9:20 am66 °FSunny.2 mph83%30.15 "Hg10 mi
8:50 am61 °FSunny.2 mph94%30.15 "Hg10 mi
8:20 am59 °FSunny.No wind94%30.15 "Hg10 mi
7:50 am55 °FPassing clouds.2 mph100%30.15 "HgN/A
7:20 am52 °FLight fog.2 mph100%30.15 "HgN/A
6:50 am52 °FCool.2 mph100%30.15 "Hg3 mi
6:20 am52 °FCool.1 mph100%30.15 "Hg4 mi
5:50 am52 °FFog.1 mph100%30.15 "Hg3 mi
5:20 am55 °FCool.2 mph94%30.12 "Hg4 mi
4:50 am54 °FCool.1 mph100%30.12 "Hg4 mi
4:20 am55 °FCool.2 mph100%30.12 "Hg4 mi
3:20 am55 °FCool.1 mph100%30.12 "Hg4 mi
2:50 am55 °FFog.1 mph100%30.12 "Hg2 mi
2:20 am57 °FFog.1 mph100%30.12 "Hg2 mi
1:50 am59 °FCool.1 mph94%30.12 "Hg4 mi
1:20 am57 °FCool.3 mph100%30.12 "Hg4 mi
12:50 am59 °FClear.1 mph94%30.12 "Hg10 mi
12:20 am59 °FCool.1 mph94%30.12 "Hg4 mi
11:50 pm
Sat, Aug 24
59 °FClear.1 mph100%30.12 "Hg10 mi
11:20 pm61 °FClear.2 mph94%30.12 "Hg10 mi
10:50 pm61 °FClear.3 mph94%30.12 "Hg10 mi
10:20 pm61 °FPassing clouds.5 mph100%30.12 "HgN/A
9:50 pm63 °FClear.2 mph94%30.12 "Hg10 mi
9:20 pm64 °FClear.1 mph88%30.12 "Hg10 mi
8:50 pm68 °FClear.2 mph83%30.12 "Hg10 mi
8:20 pm73 °FSunny.2 mph65%30.12 "Hg10 mi
7:50 pm75 °FPassing clouds.3 mph61%30.09 "HgN/A
7:20 pm77 °FSunny.7 mph57%30.09 "Hg10 mi
6:50 pm79 °FSunny.6 mph51%30.09 "Hg10 mi
6:20 pm81 °FSunny.6 mph45%30.09 "Hg10 mi
5:50 pm81 °FSunny.3 mph42%30.12 "Hg10 mi
5:20 pm81 °FSunny.6 mph45%30.12 "Hg10 mi
4:50 pm81 °FPassing clouds.3 mph42%30.12 "HgN/A
4:20 pm81 °FPassing clouds.5 mph45%30.12 "HgN/A
Weather by CustomWeather, © 2019

See weather overview